DELTA 1 DEB, 10875

Orbit data source: Space-Track

DELTA 1 DEB, 10875 is space debris in SSO originally from a launch on Thu, 29 Jul 1976 UTC launched from the Air Force Western Test Range (AFWTR). Debris objects in space refer to the collection of defunct objects orbiting the Earth. Examples of debris include non-operational satellites, rocket bodies, and fragments generated from explosions, collisions, or faulty payload assembly.

Loading next visibility...
Identifier
10875, 1976-077DD
Orbit
SSO
Country
Flag of USUS
Related business
Manufacturer
Unknown
Mission
Spacecraft
Bus & Motor
Unknown
Mass
Unknown
Launch date (UTC)
1976-07-29 (50 years ago)
Launch vehicle
Unknown
Launch site
Air Force Western Test Range (AFWTR)
Object type
Payload
Rocket body
Debris
Shape & HBR
Unknown shape, 0.1 m
Radar Cross Section
Small (<0.1 m²)

Expand to show TLE details & history
Last TLE update: 1 day ago

TLE from 1 day ago
0 DELTA 1 DEB
1 10875U 76077DD  26127.11484687  .00000013  00000-0  39878-3 0  9997
2 10875 101.9775  81.9958 0032550 309.8261  63.4049 12.47076905264006
Epoch: 2026-05-07T02:45Z
TLE epoch observation values (Epoch: 2026-05-07T02:45:22.769Z)
Latitude
13.23417°
Longitude
172.83957°
Altitude
1,467.188 km
Speed
7.135 km/s
True Right ascension
05h 16m 36s
True Declination
13° 09' 53"
Sunlit
Object was in daylight at epoch
Visualization orbit readout
Latitude
Unknown
Longitude
Unknown
Altitude
Unknown
Speed
Unknown
Apparent Right ascension
Unknown
Apparent Declination
Unknown
Sunlit
N/A
Visualization observer readout
Local Sidereal Time
13:26:36
Azimuth
Unknown
Elevation
Unknown
Doppler factor
Unknown
Orbital elements
Apogee altitude
1,499.869 km
Perigee altitude
1,448.75 km
Semi-major axis
7,852.446 km
Eccentricity
0.00326
Inclination
101.9775°
RAAN
81.9958°
Arg. of periapsis
309.8261°
True anomaly
63.73904°
Mean anomaly
63.4049°
Eccentric anomaly
63.57191°
Mean motion
3.11915 °/min
Orbital period
115.42 mins
BSTAR
0.00039878
Loading maneuver chart data...
Computing Atmospheric mass density...
Loading historical data...
Loading historical data...
Loading historical data...
Loading historical data...
Loading historical data...
Loading historical data...
Loading historical data...

Documentation

Showing up to 5 results
|